WetterOnline ( http://www.wetteronline.de )

Wetter aktuell Hohenpeißenberg

Aktuelles Wetter: Hohenpeißenberg (986m)

6-stündlich | Neueste Meldungen
Ortszeit Temperatur Wetter
Mi, 19.09. 20:00 18.9° C wolkenlos
Mi, 19.09. 14:00 21.5° C leicht bewölkt
Mi, 19.09. 8:00 16.1° C leicht bewölkt
Mi, 19.09. 2:00 15.0° C leicht bewölkt
Di, 18.09. 20:00 14.4° C wolkig
Di, 18.09. 14:00 23.4° C leicht bewölkt
Di, 18.09. 8:00 16.9° C fast wolkenlos
Di, 18.09. 2:00 17.6° C wolkenlos
Ortszeit Temperatur Wetter
Mi, 19.09. 23:00 17.6° C wolkenlos
Mi, 19.09. 22:50 17.6° C bedeckt
Mi, 19.09. 22:40 17.8° C leicht bewölkt
Mi, 19.09. 22:30 18.0° C wolkenlos
Mi, 19.09. 22:20 18.0° C bedeckt
Mi, 19.09. 22:10 18.0° C leicht bewölkt
Mi, 19.09. 22:00 18.2° C wolkenlos
Mi, 19.09. 21:30 18.3° C wolkenlos
Mi, 19.09. 21:00 19.0° C wolkenlos
Mi, 19.09. 20:30 19.2° C wolkenlos
Mi, 19.09. 20:00 18.9° C wolkenlos
Ortszeit Relative Feuchte Sichtweite
Mi, 19.09. 20:00 60% >70 km
Mi, 19.09. 14:00 49% 70 km
Mi, 19.09. 8:00 65% >70 km
Mi, 19.09. 2:00 69% >70 km
Di, 18.09. 20:00 81% >70 km
Di, 18.09. 14:00 49% 30 km
Di, 18.09. 8:00 74% 60 km
Di, 18.09. 2:00 73% 40 km
Ortszeit Relative Feuchte Sichtweite
Mi, 19.09. 23:00 69% >70 km
Mi, 19.09. 22:50 69% -
Mi, 19.09. 22:40 69% -
Mi, 19.09. 22:30 69% >70 km
Mi, 19.09. 22:20 69% -
Mi, 19.09. 22:10 69% -
Mi, 19.09. 22:00 68% >70 km
Mi, 19.09. 21:30 74% 70 km
Mi, 19.09. 21:00 66% >70 km
Mi, 19.09. 20:30 61% >70 km
Mi, 19.09. 20:00 60% >70 km
Ortszeit Niederschlagsmenge Niederschlagsart
Mi, 19.09. 20:00 0.0 l/m2 in 12 Std. -
Mi, 19.09. 14:00 0.0 l/m2 in 6 Std. -
Mi, 19.09. 8:00 0.1 l/m2 in 12 Std. Schauer
Mi, 19.09. 2:00 0.0 l/m2 in 6 Std. -
Di, 18.09. 20:00 1 l/m2 in 12 Std. Gewitter, Schauer
Di, 18.09. 14:00 0.0 l/m2 in 6 Std. -
Di, 18.09. 8:00 0.0 l/m2 in 12 Std. -
Di, 18.09. 2:00 0.0 l/m2 in 6 Std. -
Ortszeit Niederschlagsmenge Niederschlagsart
Mi, 19.09. 23:00 0.0 l/m2 in 1 Std. -
Mi, 19.09. 22:50 keine Meldung -
Mi, 19.09. 22:40 keine Meldung -
Mi, 19.09. 22:30 0.0 l/m2 in 1 Std. -
Mi, 19.09. 22:20 keine Meldung -
Mi, 19.09. 22:10 keine Meldung -
Mi, 19.09. 22:00 0.0 l/m2 in 1 Std. -
Mi, 19.09. 21:30 0.0 l/m2 in 1 Std. -
Mi, 19.09. 21:00 0.0 l/m2 in 1 Std. -
Mi, 19.09. 20:30 0.0 l/m2 in 1 Std. -
Mi, 19.09. 20:00 0.0 l/m2 in 1 Std. -
Ortszeit Stärke Spitze Richtung
km/h Bft. km/h Grad Sektor
Mi, 19.09. 20:00 13 3 17 40° NO
Mi, 19.09. 14:00 7 2 14 270° W
Mi, 19.09. 8:00 4 1 32 200° S
Mi, 19.09. 2:00 11 2 50 170° S
Di, 18.09. 20:00 33 5 46 150° SO
Di, 18.09. 14:00 7 2 20 290° W
Di, 18.09. 8:00 11 2 22 270° W
Di, 18.09. 2:00 15 3 20 130° SO
Ortszeit Stärke Spitze Richtung
km/h Bft. km/h Grad Sektor
Mi, 19.09. 23:00 11 2 18 140° SO
Mi, 19.09. 22:50 11 2 - 140° SO
Mi, 19.09. 22:40 13 3 - 140° SO
Mi, 19.09. 22:30 13 3 17 140° SO
Mi, 19.09. 22:20 13 3 - 140° SO
Mi, 19.09. 22:10 13 3 - 130° SO
Mi, 19.09. 22:00 11 2 18 120° SO
Mi, 19.09. 21:30 13 3 17 110° O
Mi, 19.09. 21:00 11 2 14 90° O
Mi, 19.09. 20:30 9 2 15 80° O
Mi, 19.09. 20:00 13 3 15 40° NO
Ortszeit Untergrenze Bedeckung Gattung
total tief tief mittel hoch
Mi, 19.09. 20:00 - 0/8 0/8 - - -
Mi, 19.09. 14:00 990 m 2/8 2/8 Cu - -
Mi, 19.09. 8:00 2100 m 4/8 4/8 Sc - -
Mi, 19.09. 2:00 2400 m 3/8 3/8 - Ac -
Di, 18.09. 20:00 2100 m 7/8 6/8 Cb Ns -
Di, 18.09. 14:00 1500 m 3/8 2/8 Cu As -
Di, 18.09. 8:00 3000 m 1/8 1/8 - Ac -
Di, 18.09. 2:00 - 0/8 0/8 - - -
Ortszeit Bedeckungsgrad in Achtel und Wolkenuntergrenze
Mi, 19.09. 23:00 keine Wolken
Mi, 19.09. 22:50 9 9 9
Mi, 19.09. 22:40 2(3600m)
Mi, 19.09. 22:30 2(3600m)
Mi, 19.09. 22:20 9 9 9
Mi, 19.09. 22:10 3(3600m)
Mi, 19.09. 22:00 3(3600m)
Mi, 19.09. 21:30 9 9 9
Mi, 19.09. 21:00 2(3600m)
Mi, 19.09. 20:30 9 9 9
Mi, 19.09. 20:00 9 9 9
Ortszeit Stationsdruck (hPa) Tendenz (hPa in 3 Std.)
Mi, 19.09. 20:00 911 + 0,3
Mi, 19.09. 14:00 911 - 0,3
Mi, 19.09. 8:00 910 + 0,9
Mi, 19.09. 2:00 909 0,0
Di, 18.09. 20:00 908 + 0,3
Di, 18.09. 14:00 908 - 0,3
Di, 18.09. 8:00 908 + 0,8
Di, 18.09. 2:00 907 - 1,1
Ortszeit Stationsdruck (hPa) Tendenz (hPa in 3 Std.)
Mi, 19.09. 23:00 911 + 0,5
Mi, 19.09. 22:50 911 keine Meldung
Mi, 19.09. 22:40 911 keine Meldung
Mi, 19.09. 22:30 911 + 0,6
Mi, 19.09. 22:20 911 keine Meldung
Mi, 19.09. 22:10 911 keine Meldung
Mi, 19.09. 22:00 911 + 0,7
Mi, 19.09. 21:30 911 + 0,8
Mi, 19.09. 21:00 911 + 0,7
Mi, 19.09. 20:30 911 + 0,6
Mi, 19.09. 20:00 911 + 0,3
Ortszeit Schneehöhe (cm)
Mi, 19.09. 20:00 0
Mi, 19.09. 14:00 0
Mi, 19.09. 8:00 0
Mi, 19.09. 2:00 0
Di, 18.09. 20:00 0
Di, 18.09. 14:00 0
Di, 18.09. 8:00 0
Di, 18.09. 2:00 0
Ortszeit Schneehöhe (cm)
Mi, 19.09. 23:00 -
Mi, 19.09. 22:50 -
Mi, 19.09. 22:40 -
Mi, 19.09. 22:30 -
Mi, 19.09. 22:20 -
Mi, 19.09. 22:10 -
Mi, 19.09. 22:00 -
Mi, 19.09. 21:30 -
Mi, 19.09. 21:00 -
Mi, 19.09. 20:30 -
Mi, 19.09. 20:00 0
Link zu dieser Seite / Seite empfehlen

Das Wetter in ...